User: anonymous   Login
Location: Unspecified
(0.0000°N, 0.0000°E)
Time: 02:00:15
(UTC+00:00)
Language:

PACE - Orbit

View from above orbital plane
View from above orbital plane
View from above satellite
View from above satellite

Ground track
Ground track

The orbit data is extracted from the following two-line orbital elements,

1 40022U 14033N   17324.88166119 +.00000435 +00000-0 +53031-4 0  9994
2 40022 097.9088 235.6556 0014072 147.2146 212.9947 14.88332928185783
Epoch (UTC): 20 November 2017 21:09:35
Eccentricity: 0.0014072
inclination: 97.9088°
perigee height: 593 km
apogee height: 613 km
right ascension of ascending node: 235.6556°
argument of perigee: 147.2146°
revolutions per day: 14.88332928
mean anomaly at epoch: 212.9947°
orbit number at epoch: 18578

The dashed part of the orbit path shows where the satellite is in the earth's shadow,  

DLR